Погода в Плодопитомнике

Россия / Амурская область     50°18′23″N   127°29′22″E
темп.,
°C
ветер,
м/с
пор.,
м/с
влажн.,
%
обл.,
%
осадки,
мм/ч
давл.,
гПа
погр.,
м
21 мая, сб
сб2100:00+12сз51083100 0.1 1000304
03:00+12ссз5982100 0.3 1001424
06:00+11с3786100 0.3 1004588
09:00+12ссз4782100 0.8 1005641
12:00+17ссз564499 0.1 10042123
15:00+16с5749100 0.1 10051333
18:00+17ссв474461 0.0 10041040
21:00+11с33590 0.0 100749
22 мая, вс
вс2200:00+10сз226611 0.0 100822
03:00+8зсз227276 0.0 100820
06:00+9сз226964 0.0 100981
09:00+15ссв2252100 0.0 1009630
12:00+18юв3239100 0.0 10071443
15:00+19ююв6636100 0.0 10031749
18:00+17юв71146100 0.0 1001838
21:00+14юв5125981 0.9 1001446
23 мая, пн
пн2300:00+12ююв4976100 1.6 999335
03:00+10ю369521 2.1 998115
06:00+11з598290 0.4 998495
09:00+13зсз676896 0.4 9991040
12:00+11сз81182100 0.1 1002908
15:00+11ссз81175100 0.1 10051157
18:00+12ссз7867100 0.0 10061105
21:00+11сз37705 0.0 1008306
24 мая, вт
вт2400:00+8сз368764 0.0 1009102
03:00+6ссз34915 0.0 101067
06:00+7ссз2488100 0.0 1012164
09:00+12с3373100 0.0 1013533
12:00+17всв3456100 0.0 10131153
15:00+19всв3447100 0.0 10121533
18:00+18св3656100 0.0 1012210
21:00+14всв386593 0.0 1013135
25 мая, ср
ср2500:00+12св3661100 0.0 1015113
03:00+10св336316 0.0 101539
06:00+11в2883100 0.0 1016299
09:00+16вюв5661100 0.0 1017889
12:00+20вюв6850100 0.0 10161421
15:00+21юв6844100 0.0 10151869
18:00+20ююв4753100 0.0 1014700
21:00+15ю4973100 0.0 1016258